Evans Head Observation History
Time Wind Speed Temp Pressure Rel. Hum Rain
14/10:00am W 7-12 kts 18.7°c 1014.0 hPa 57% 0.0mm
14/09:30am W 9-15 kts 17.5°c 1013.9 hPa 61% 0.0mm
14/09:00am W 7-14 kts 16.9°c 1013.9 hPa 58% 0.0mm
14/08:30am WNW 7-11 kts 16.3°c 1013.8 hPa 66% 0.0mm
14/08:00am WNW 7-10 kts 14.9°c 1013.6 hPa 67% 0.0mm
14/07:30am WNW 7-10 kts 13.9°c 1013.3 hPa 67% 0.0mm
14/07:00am NW 7-10 kts 12.6°c 1012.8 hPa 73% 0.0mm
14/06:30am NW 8-11 kts 11.7°c 1012.4 hPa 76% 0.0mm
14/06:00am NW 7-10 kts 12.2°c 1012.0 hPa 73% 0.0mm
14/05:30am WNW 9-12 kts 12.2°c 1011.7 hPa 73% 0.0mm
14/05:00am WNW 8-12 kts 12.4°c 1011.5 hPa 73% 0.0mm
14/04:30am NW 8-13 kts 12.2°c 1011.2 hPa 74% 0.0mm
14/04:00am NW 8-11 kts 12.7°c 1011.3 hPa 72% 0.0mm
14/03:30am WNW 8-11 kts 12.9°c 1011.0 hPa 71% 0.0mm
14/03:00am WNW 8-11 kts 13.2°c 1011.0 hPa 68% 0.0mm
14/02:30am WNW 8-12 kts 13.8°c 1010.9 hPa 65% 0.0mm
14/02:00am NW 8-10 kts 13.7°c 1011.2 hPa 66% 0.0mm
14/01:30am NW 9-13 kts 13.6°c 1011.6 hPa 68% 0.0mm
14/01:00am NW 8-10 kts 13.2°c 1011.7 hPa 69% 0.0mm
14/12:30am WNW 6-9 kts 14.0°c 1011.7 hPa 65% 0.0mm
14/12:00am WNW 6-8 kts 13.9°c 1011.8 hPa 66% 0.0mm
Time Wind Speed Temp Pressure Rel. Hum Rain
13/11:30pm WNW 6-8 kts 14.4°c 1011.9 hPa 63% 0.0mm
13/11:00pm W 9-14 kts 15.3°c 1012.0 hPa 61% 0.0mm
13/10:30pm W 8-11 kts 15.8°c 1012.0 hPa 59% 0.0mm
13/10:00pm WNW 7-10 kts 15.8°c 1012.1 hPa 59% 0.0mm
13/09:30pm WNW 7-10 kts 16.1°c 1012.1 hPa 58% 0.0mm
13/09:00pm NW 7-9 kts 16.1°c 1012.0 hPa 58% 0.0mm
13/08:30pm WNW 7-8 kts 16.3°c 1012.0 hPa 56% 0.0mm
13/08:00pm WNW 7-8 kts 17.1°c 1011.8 hPa 53% 0.0mm
13/07:30pm W 4-6 kts 19.1°c 1011.5 hPa 53% 0.0mm
13/07:00pm W 2-3 kts 19.2°c 1011.2 hPa 67% 0.0mm
13/06:30pm CALM 0 kts 19.3°c 1011.1 hPa 70% 0.0mm
13/06:00pm WNW 5-6 kts 19.7°c 1010.7 hPa 48% 0.0mm
13/05:30pm WNW 5-6 kts 19.7°c 1010.4 hPa 55% 0.0mm
13/05:00pm WNW 4-5 kts 20.4°c 1010.1 hPa 53% 0.0mm
13/04:30pm WNW 4-6 kts 21.2°c 1009.8 hPa 52% 0.0mm
13/04:00pm WNW 5-8 kts 23.0°c 1009.6 hPa 46% 0.0mm
13/03:30pm WNW 5-8 kts 23.4°c 1009.6 hPa 47% 0.0mm
13/03:00pm WNW 6-10 kts 24.1°c 1009.5 hPa 43% 0.0mm
13/02:30pm W 5-12 kts 24.3°c 1009.6 hPa 45% 0.0mm
13/02:00pm WNW 6-11 kts 24.2°c 1009.7 hPa 47% 0.0mm
13/01:30pm WNW 5-9 kts 24.1°c 1009.8 hPa 54% 0.0mm
13/01:00pm WSW 6-10 kts 21.8°c 1010.2 hPa 60% 0.0mm
13/12:30pm W 5-8 kts 23.3°c 1010.6 hPa 59% 0.0mm
13/12:00pm WSW 5-8 kts 23.1°c 1011.0 hPa 61% 0.0mm
13/11:30am W 6-10 kts 22.5°c 1011.7 hPa 65% 0.0mm
13/11:00am WNW 6-10 kts 22.5°c 1012.2 hPa 68% 0.0mm
13/10:30am WSW 5-7 kts 21.5°c 1012.4 hPa 71% 0.0mm
13/10:00am S 4-6 kts 21.3°c 1012.8 hPa 73% 0.0mm
13/09:30am W 6-8 kts 19.6°c 1013.1 hPa 78% 0.0mm
13/09:00am WSW 5-8 kts 18.4°c 1013.3 hPa 83% 0.6mm
13/08:30am WNW 6-10 kts 18.1°c 1013.5 hPa 91% 0.6mm
13/08:00am WNW 8-12 kts 17.5°c 1013.5 hPa 95% 0.6mm
13/07:30am W 7-10 kts 17.1°c 1013.0 hPa 97% 0.6mm
13/07:00am W 7-10 kts 16.9°c 1012.9 hPa 97% 0.6mm
13/06:30am W 6-8 kts 16.8°c 1012.7 hPa 97% 0.6mm
13/06:00am WNW 6-9 kts 16.7°c 1012.6 hPa 97% 0.6mm
13/05:30am W 6-7 kts 16.9°c 1012.5 hPa 97% 0.6mm
13/05:00am WSW 6-7 kts 16.8°c 1012.5 hPa 97% 0.6mm
13/04:30am W 6-8 kts 17.0°c 1012.5 hPa 97% 0.6mm
13/04:00am WSW 7-9 kts 17.1°c 1012.6 hPa 97% 0.6mm
13/03:30am WSW 7-9 kts 17.4°c 1012.7 hPa 97% 0.6mm
13/03:00am WSW 6-9 kts 17.4°c 1012.9 hPa 97% 0.6mm
13/02:30am WSW 6-8 kts 17.8°c 1013.2 hPa 97% 0.6mm
13/02:00am WSW 6-9 kts 17.9°c 1013.6 hPa 97% 0.6mm
13/01:30am WSW 6-10 kts 18.2°c 1014.1 hPa 97% 0.6mm
13/01:00am SSW 7-11 kts 18.4°c 1014.3 hPa 97% 0.6mm
13/12:30am SSW 7-10 kts 18.5°c 1014.4 hPa 98% 0.4mm
13/12:00am SSW 6-9 kts 18.3°c 1014.7 hPa 97% 0.4mm
Time Wind Speed Temp Pressure Rel. Hum Rain
12/11:30pm SW 7-11 kts 18.1°c 1014.8 hPa 97% 0.4mm
12/11:00pm SW 7-9 kts 18.2°c 1015.2 hPa 96% 0.4mm
12/10:30pm WSW 6-7 kts 18.4°c 1015.3 hPa 96% 0.4mm
12/10:00pm WSW 5-6 kts 18.4°c 1015.3 hPa 97% 0.4mm
12/09:30pm WSW 5-7 kts 18.4°c 1015.4 hPa 97% 0.4mm
12/09:00pm WSW 6-7 kts 18.7°c 1015.3 hPa 96% 0.4mm
12/08:30pm WSW 5-6 kts 18.9°c 1015.6 hPa 95% 0.4mm
12/08:00pm W 4-5 kts 19.2°c 1016.0 hPa 93% 0.4mm
12/07:30pm W 5 kts 19.3°c 1016.1 hPa 93% 0.4mm
12/07:00pm NW 3-5 kts 18.8°c 1016.0 hPa 95% 0.4mm
12/06:30pm NNW 4 kts 19.0°c 1015.8 hPa 94% 0.4mm
12/06:00pm N 5-6 kts 19.4°c 1015.7 hPa 94% 0.4mm
12/05:30pm N 4-5 kts 19.7°c 1015.6 hPa 91% 0.4mm
12/05:00pm NNW 2-4 kts 20.2°c 1015.6 hPa 90% 0.4mm
12/04:30pm NNW 3-4 kts 20.8°c 1015.6 hPa 90% 0.4mm
12/04:00pm CALM 0 kts 21.0°c 1015.6 hPa 88% 0.4mm
12/03:30pm E 2-4 kts 21.0°c 1015.5 hPa 88% 0.4mm
12/03:00pm NNW 3-4 kts 20.8°c 1015.3 hPa 89% 0.4mm
12/02:30pm E 9-12 kts 20.4°c 1014.7 hPa 88% 0.4mm
12/02:00pm NE 1-4 kts 21.3°c 1015.3 hPa 87% 0.4mm
12/01:30pm CALM 0 kts 21.7°c 1015.9 hPa 82% 0.0mm
12/01:00pm CALM 0-3 kts 21.9°c 1016.1 hPa 78% 0.0mm
12/12:30pm NNW 3-5 kts 22.1°c 1016.4 hPa 79% 0.0mm
12/12:00pm CALM 0 kts 22.0°c 1017.0 hPa 79% 0.0mm
12/11:30am WNW 1-3 kts 21.4°c 1017.2 hPa 82% 0.0mm
12/11:00am NNE 2-4 kts 21.0°c 1017.7 hPa 85% 0.0mm
12/10:30am NNW 2-4 kts 20.6°c 1018.3 hPa 86% 0.0mm
12/10:00am CALM 0 kts 20.2°c 1018.4 hPa 86% 0.0mm
12/09:30am CALM 0 kts 19.3°c 1018.5 hPa 90% 0.0mm
12/09:00am WNW 4-5 kts 17.9°c 1018.4 hPa 93% 0.0mm
12/08:30am SW 3-5 kts 17.6°c 1018.1 hPa 95% 0.0mm
12/08:00am SW 6-9 kts 16.9°c 1018.1 hPa 94% 0.0mm
12/07:30am SSW 6-7 kts 16.8°c 1017.7 hPa 94% 0.0mm
12/07:00am SW 5-6 kts 17.5°c 1017.4 hPa 92% 0.0mm
12/06:30am WSW 4-5 kts 17.7°c 1017.1 hPa 92% 0.0mm
12/06:00am W 4-5 kts 17.1°c 1017.0 hPa 94% 0.0mm
12/05:30am WSW 7-9 kts 17.6°c 1016.5 hPa 92% 0.0mm
12/05:00am SW 2-4 kts 17.6°c 1016.0 hPa 91% 0.0mm
12/04:30am W 6-9 kts 17.9°c 1016.0 hPa 91% 0.0mm
12/04:00am W 7-10 kts 18.1°c 1015.9 hPa 91% 0.0mm
12/03:30am NNW 7-10 kts 17.2°c 1015.8 hPa 93% 0.0mm
12/03:00am N 6-10 kts 17.9°c 1016.1 hPa 92% 0.0mm
12/02:30am NW 4-8 kts 18.4°c 1016.2 hPa 89% 0.0mm
12/02:00am NNW 3-4 kts 18.2°c 1016.1 hPa 93% 0.0mm
12/01:30am NNW 4-6 kts 18.0°c 1016.5 hPa 93% 0.0mm
12/01:00am NNW 6-10 kts 18.4°c 1016.7 hPa 95% 0.0mm
12/12:30am NNW 6-8 kts 18.4°c 1016.4 hPa 95% 0.0mm
12/12:00am NNW 7-9 kts 18.3°c 1016.5 hPa 94% 0.0mm